Wind_Speed
14 16 18 20 22 22 23 25 28 30 32 34 34 34 34 34 34 34 32 32 31 31 31 33 34 35 36 37 39 39 40 41 43 45 47 49 51 52 53 54 55 56 56 57
13 16 18 19 20 21 23 25 26 28 30 31 32 33 32 31 30 30 29 28 28 29 29 31 32 32 34 35 36 38 39 41 43 44 46 47 48 49 50 50 52 53 54 55
12 13 16 16 18 20 22 22 24 25 27 28 30 31 31 30 28 28 28 26 25 25 25 27 29 30 32 34 36 37 38 39 40 41 43 45 46 47 48 49 50 51 53 54
12 13 15 16 16 16 17 19 21 23 24 25 26 27 27 27 27 26 26 25 25 26 27 27 28 29 31 32 33 35 36 38 39 40 42 43 44 46 47 48 49 50 51 52
11 12 14 15 15 15 17 18 19 20 22 24 24 23 23 23 23 23 24 24 25 25 25 26 27 29 30 32 33 35 36 37 39 40 41 42 43 45 46 47 48 48 48 48
12 13 14 14 15 16 18 19 20 20 21 22 21 20 21 20 21 21 22 23 23 24 24 25 26 27 29 31 32 34 35 36 37 38 40 41 42 43 44 44 44 44 45 45
12 13 14 14 15 16 16 18 18 19 19 19 19 19 19 19 19 20 21 21 22 23 23 24 25 26 28 29 30 31 32 34 35 36 37 38 39 39 39 40 40 40 40 39
14 13 13 14 13 14 15 15 16 16 16 17 18 18 18 18 18 19 19 20 21 21 22 23 24 24 25 26 27 28 29 30 31 32 33 34 34 34 34 34 33 34 33 32
14 13 13 12 12 12 13 14 14 14 15 15 15 16 16 16 17 18 18 18 19 20 21 21 22 22 23 24 25 26 27 28 29 30 30 30 30 29 28 28 29 28 27 26
14 14 13 12 12 12 12 13 13 14 14 14 14 14 14 14 15 15 16 17 17 18 18 19 19 20 21 22 24 25 25 25 26 26 26 26 26 25 25 25 24 23 23 21
15 15 13 12 12 12 12 12 13 13 13 13 12 12 12 13 13 14 14 15 15 15 16 17 18 19 20 21 21 21 21 21 22 23 23 23 23 22 22 21 20 19 18 17
15 15 14 13 13 13 12 12 12 13 12 12 11 11 11 12 12 12 12 13 13 14 15 15 16 17 17 18 18 18 19 20 20 20 20 20 20 19 18 17 16 15 14 13
15 15 14 14 13 13 13 13 13 12 12 11 10 10 10 11 11 11 12 12 13 13 13 14 15 16 17 17 17 17 18 18 17 17 17 17 16 16 15 14 13 12 11 10
15 15 14 14 13 13 13 12 12 12 11 10 10 10 10 10 11 11 11 11 11 12 12 13 14 15 16 16 16 16 16 15 15 15 14 14 13 13 13 12 11 10 10 9
15 15 14 13 13 13 13 13 12 11 10 10 9 9 9 9 9 10 10 10 11 12 12 13 14 14 14 13 13 13 13 13 12 12 12 12 12 12 11 11 10 10 9 9
15 14 13 13 13 12 12 12 11 10 9 9 8 8 9 9 9 9 10 10 10 11 12 12 11 11 11 11 12 12 11 11 11 11 11 11 11 10 10 10 9 9 10 10
14 13 13 12 12 12 11 11 10 9 9 8 8 8 8 9 9 10 10 10 11 12 12 11 10 10 10 11 11 11 11 10 10 10 10 10 10 10 10 10 10 10 10 11
13 13 12 12 12 11 11 10 9 9 8 8 7 8 9 9 9 10 10 11 11 11 11 10 9 9 10 11 11 10 10 10 10 10 10 9 10 10 10 10 10 10 11 11
13 12 12 11 11 11 10 9 8 8 8 8 7 8 8 9 9 10 11 12 12 12 11 11 10 10 10 10 9 9 9 9 9 10 10 10 10 10 10 10 11 11 11 12
12 11 11 11 10 10 9 8 8 8 7 7 7 8 8 9 10 11 12 12 12 13 13 12 12 11 11 10 9 9 9 9 9 9 10 10 10 10 10 10 11 11 11 11
11 10 10 10 9 8 8 7 7 7 6 7 8 8 8 9 10 12 12 13 14 14 14 14 13 13 12 12 11 10 9 9 9 9 9 9 9 9 9 9 10 10 10 10
10 9 9 9 9 8 7 7 6 6 6 7 7 8 8 9 10 11 12 13 14 15 16 16 15 15 14 13 13 11 10 10 10 10 9 9 9 9 9 9 9 10 10 10
9 8 8 8 7 7 6 5 5 5 5 6 7 7 8 9 10 11 12 13 14 15 16 17 16 16 15 15 14 13 12 12 11 11 11 10 10 10 9 9 9 10 10 10
8 7 7 7 6 6 5 4 4 4 4 4 5 5 6 8 9 10 11 13 14 15 16 16 17 17 17 16 15 14 13 13 12 12 12 11 11 11 10 10 10 10 10 10
8 7 6 6 5 5 4 4 3 3 3 3 3 4 5 7 8 9 11 12 14 15 15 16 16 17 17 17 17 16 15 14 13 13 12 12 11 11 11 10 10 10 11 11
7 6 6 5 5 5 4 3 3 2 2 1 2 2 4 6 7 8 9 11 12 13 14 15 15 15 16 16 17 16 15 15 14 14 13 12 12 12 11 11 11 11 11 12
8 7 6 6 5 5 4 3 3 2 1 0 1 1 2 4 5 6 8 9 10 11 12 13 13 14 14 15 16 16 16 15 14 14 14 13 13 12 12 12 12 12 12 12
Wind_Direction
256 257 253 252 251 253 253 250 249 250 253 254 256 261 266 270 273 276 276 275 271 269 270 270 268 265 266 268 268 269 270 272 274 276 278 280 281 282 282 283 283 284 286 287
263 263 261 260 258 260 261 257 253 252 255 257 261 265 269 273 274 277 278 276 271 271 273 270 268 270 272 272 271 273 276 277 277 278 279 281 282 284 285 286 286 287 288 289
276 277 270 272 267 262 263 259 257 258 258 261 263 266 271 275 276 280 280 278 277 277 280 277 274 274 274 275 276 277 279 279 281 283 284 285 286 288 288 288 289 289 289 289
291 285 281 285 281 274 276 270 265 264 266 265 265 267 270 274 278 280 280 280 282 285 287 285 283 281 280 280 280 281 283 285 288 288 289 289 289 289 290 290 290 290 290 290
301 297 292 291 287 283 281 280 279 276 276 276 275 276 276 278 280 283 285 287 287 286 287 286 285 283 283 283 285 286 287 288 288 290 290 291 291 292 293 293 293 293 292 292
311 304 300 297 295 292 288 287 288 286 285 285 286 283 286 287 287 287 288 287 286 287 287 287 288 287 287 287 288 289 291 291 292 293 293 293 294 295 295 295 295 294 294 293
320 311 305 302 300 298 295 296 293 291 291 291 291 290 290 289 289 288 287 286 285 287 289 289 289 290 290 291 292 293 294 295 295 296 297 298 299 299 299 298 298 297 297 296
331 322 316 312 307 304 302 300 299 297 295 295 295 295 294 294 291 288 287 287 288 289 291 290 290 291 292 295 297 297 298 299 300 302 303 303 303 303 303 303 303 303 303 302
335 331 323 320 313 308 306 304 304 301 300 300 299 296 293 291 290 290 290 290 290 291 291 292 294 295 297 298 300 301 303 304 305 306 307 308 308 309 308 309 309 310 310 309
341 339 333 327 322 317 312 310 309 307 304 303 301 297 294 293 292 293 292 292 293 294 296 298 299 299 300 301 303 305 307 309 311 313 314 315 315 315 315 316 317 318 319 319
340 337 333 329 326 323 320 318 316 314 310 306 303 299 298 299 299 299 298 298 298 299 301 302 302 303 304 307 309 310 312 315 318 320 321 321 321 321 322 323 326 328 329 332
339 337 336 335 332 329 327 325 321 320 315 310 307 306 305 306 306 303 303 305 306 306 306 307 308 309 311 313 314 315 316 319 322 325 326 328 329 331 331 333 336 340 345 351
339 338 337 336 334 331 329 329 328 326 322 317 314 311 310 310 308 307 308 309 310 311 312 313 315 315 315 317 318 320 322 324 327 331 333 336 339 341 343 346 349 354 359 7
339 339 340 340 339 337 336 335 334 332 330 327 323 320 317 315 314 312 313 313 315 316 317 319 320 318 318 319 322 325 327 330 333 338 343 346 349 350 352 356 1 8 16 25
340 340 340 341 342 342 341 341 340 339 339 337 333 331 330 328 327 325 324 323 324 324 324 325 325 326 327 330 334 337 339 341 344 349 353 355 357 359 3 7 15 25 33 40
341 340 341 343 343 343 343 345 347 346 347 346 346 346 344 341 340 338 335 333 333 334 334 333 336 339 343 346 347 350 354 355 356 357 359 2 6 12 19 26 33 39 45 52
342 342 343 344 345 346 347 349 352 352 353 355 354 353 352 349 347 346 346 345 343 342 343 345 347 350 353 355 355 356 359 1 3 5 8 14 22 30 37 42 44 49 55 60
343 344 345 345 347 348 349 351 353 355 358 358 359 359 358 359 360 360 358 355 354 353 355 356 355 355 357 358 0 3 6 10 15 19 23 29 35 41 46 46 49 57 63 66
344 346 347 348 349 350 352 356 359 1 2 5 6 6 6 8 10 10 8 8 7 6 6 5 4 3 4 6 10 14 19 23 26 29 35 39 43 47 51 54 59 65 67 69
344 345 347 350 351 354 357 1 3 6 12 17 19 16 15 18 20 20 20 18 18 19 19 18 18 19 20 20 23 25 26 28 32 36 41 45 49 54 59 62 65 67 67 67
344 346 349 353 354 356 359 2 7 12 17 22 22 23 27 30 28 27 27 27 28 28 28 28 28 30 30 32 33 34 35 36 38 40 45 49 54 59 63 64 66 66 65 65
343 344 348 352 356 359 2 7 14 19 23 26 29 34 37 37 33 32 32 33 34 35 35 35 36 37 38 40 43 45 44 44 45 48 53 59 62 64 66 67 67 66 65 64
340 341 344 349 355 358 2 9 18 23 26 30 35 42 44 40 37 38 39 39 39 40 40 40 40 41 41 43 45 48 49 51 54 56 60 64 66 68 69 70 69 67 66 66
335 334 338 343 348 352 358 5 16 23 29 33 41 48 47 42 42 43 44 45 44 43 42 41 41 43 44 46 48 51 53 55 56 58 60 63 65 67 68 69 68 67 67 67
328 328 331 335 339 343 344 348 357 11 24 31 43 50 47 46 47 48 48 47 46 45 44 42 41 42 44 46 48 51 53 56 57 58 60 63 65 67 68 69 68 68 68 69
318 318 320 322 324 327 327 327 331 339 356 27 60 62 53 51 47 45 45 44 43 43 43 41 40 40 42 44 47 50 53 56 57 59 61 64 65 66 66 66 66 68 70 70
307 305 304 306 306 305 304 302 305 304 295 254 175 117 65 50 44 43 43 43 43 43 42 41 41 41 44 46 48 50 52 54 55 57 59 61 62 63 64 66 68 69 69 69
Height
5760 5759 5759 5759 5760 5761 5761 5762 5763 5764 5764 5764 5764 5764 5764 5764 5763 5763 5762 5761 5761 5760 5759 5759 5758 5758 5758 5758 5757 5756 5754 5753 5750 5748 5745 5743 5740 5736 5733 5729 5725 5720 5716 5711
5756 5755 5754 5754 5755 5756 5756 5756 5756 5757 5757 5757 5756 5756 5756 5756 5755 5755 5755 5754 5752 5751 5750 5750 5750 5750 5749 5749 5747 5746 5744 5742 5740 5737 5734 5731 5728 5724 5720 5716 5711 5707 5702 5697
5752 5751 5750 5750 5750 5750 5750 5749 5750 5750 5751 5750 5750 5749 5749 5749 5748 5747 5746 5745 5745 5744 5743 5743 5742 5741 5740 5739 5738 5736 5734 5731 5729 5726 5723 5719 5716 5712 5707 5703 5698 5693 5688 5682
5749 5748 5747 5748 5745 5745 5745 5744 5744 5744 5744 5744 5743 5742 5742 5742 5741 5740 5739 5738 5737 5737 5736 5735 5734 5733 5732 5730 5728 5726 5723 5721 5718 5715 5712 5708 5704 5699 5695 5690 5685 5680 5674 5669
5745 5744 5743 5742 5741 5740 5740 5739 5738 5738 5738 5737 5736 5735 5734 5734 5733 5733 5732 5731 5730 5729 5728 5727 5726 5724 5723 5721 5719 5716 5713 5710 5707 5704 5700 5696 5691 5687 5682 5677 5672 5666 5660 5655
5742 5741 5740 5740 5737 5736 5736 5734 5733 5733 5732 5731 5730 5730 5729 5727 5726 5726 5725 5724 5723 5722 5721 5719 5718 5716 5714 5712 5709 5706 5703 5700 5697 5693 5689 5684 5679 5674 5669 5664 5658 5653 5647 5642
5739 5737 5736 5735 5733 5732 5732 5731 5728 5727 5726 5725 5725 5724 5723 5721 5720 5719 5718 5717 5716 5715 5713 5712 5710 5708 5706 5704 5701 5698 5695 5691 5687 5683 5678 5673 5668 5663 5657 5652 5647 5641 5636 5630
5736 5734 5734 5730 5729 5728 5727 5725 5723 5722 5721 5720 5719 5718 5717 5715 5714 5713 5712 5711 5710 5708 5707 5705 5703 5701 5699 5696 5693 5690 5686 5682 5678 5674 5669 5664 5659 5653 5648 5642 5637 5632 5626 5621
5735 5733 5729 5727 5725 5724 5722 5721 5719 5718 5716 5715 5714 5713 5712 5711 5709 5708 5707 5705 5704 5702 5700 5698 5696 5694 5692 5689 5686 5682 5678 5674 5670 5665 5660 5655 5650 5645 5640 5635 5629 5624 5619 5614
5731 5729 5726 5724 5722 5720 5719 5717 5715 5714 5712 5711 5709 5708 5707 5706 5705 5703 5702 5700 5698 5696 5695 5693 5690 5688 5685 5682 5679 5675 5671 5667 5663 5658 5653 5648 5643 5638 5633 5628 5623 5618 5613 5609
5729 5726 5724 5722 5720 5717 5716 5713 5711 5710 5708 5706 5705 5704 5703 5702 5700 5699 5697 5695 5693 5691 5690 5687 5685 5682 5680 5676 5673 5669 5666 5662 5657 5652 5648 5643 5638 5633 5629 5624 5619 5615 5610 5606
5727 5724 5722 5720 5717 5714 5712 5710 5708 5706 5704 5703 5701 5700 5699 5698 5696 5695 5693 5691 5689 5687 5685 5683 5680 5677 5674 5671 5668 5664 5661 5657 5652 5648 5643 5639 5634 5630 5625 5621 5617 5613 5609 5605
5725 5722 5719 5717 5714 5712 5710 5708 5705 5703 5701 5700 5698 5697 5696 5694 5693 5691 5689 5687 5685 5683 5681 5678 5675 5673 5670 5666 5663 5660 5656 5652 5648 5644 5640 5636 5632 5628 5624 5621 5617 5613 5609 5606
5722 5720 5717 5714 5712 5710 5707 5705 5703 5701 5699 5697 5695 5694 5693 5691 5689 5688 5686 5684 5682 5679 5677 5674 5672 5669 5665 5662 5659 5655 5652 5648 5645 5642 5638 5635 5631 5627 5624 5620 5617 5614 5611 5608
5720 5717 5715 5712 5710 5707 5705 5703 5700 5698 5696 5695 5693 5692 5690 5689 5687 5685 5683 5681 5679 5676 5674 5671 5668 5665 5662 5659 5656 5652 5649 5646 5643 5640 5637 5634 5631 5627 5624 5621 5618 5615 5613 5610
5718 5715 5713 5711 5708 5706 5704 5701 5699 5697 5695 5694 5692 5690 5689 5687 5685 5683 5681 5679 5676 5674 5671 5668 5665 5662 5659 5656 5654 5651 5648 5645 5642 5639 5636 5634 5631 5628 5625 5622 5620 5617 5615 5613
5716 5714 5711 5709 5707 5705 5703 5700 5698 5696 5695 5693 5691 5690 5688 5686 5684 5682 5680 5677 5675 5672 5669 5666 5663 5661 5658 5655 5652 5650 5647 5644 5642 5639 5636 5634 5632 5629 5627 5624 5622 5620 5618 5617
5715 5712 5710 5708 5706 5704 5702 5700 5698 5696 5694 5693 5691 5690 5688 5686 5684 5681 5679 5676 5673 5671 5668 5665 5662 5660 5657 5655 5652 5649 5647 5644 5642 5640 5637 5635 5633 5631 5629 5627 5625 5623 5622 5620
5713 5711 5709 5707 5705 5703 5701 5699 5697 5696 5694 5693 5691 5690 5688 5686 5684 5681 5679 5676 5673 5670 5667 5664 5662 5659 5657 5654 5652 5650 5647 5645 5643 5641 5639 5637 5635 5633 5631 5630 5628 5627 5626 5624
5712 5710 5708 5706 5704 5702 5701 5699 5697 5696 5694 5693 5692 5690 5688 5686 5684 5682 5679 5677 5674 5671 5668 5665 5662 5659 5657 5655 5652 5650 5648 5647 5645 5643 5641 5639 5637 5636 5634 5633 5632 5630 5629 5628
5711 5709 5707 5705 5704 5702 5701 5699 5698 5696 5695 5694 5692 5690 5689 5687 5685 5683 5681 5678 5675 5672 5669 5666 5663 5660 5658 5656 5653 5651 5650 5648 5646 5645 5643 5641 5640 5639 5637 5636 5635 5634 5633 5631
5709 5708 5706 5705 5703 5702 5701 5699 5698 5697 5696 5694 5693 5691 5690 5688 5687 5685 5682 5680 5677 5674 5671 5668 5665 5662 5660 5658 5655 5653 5652 5650 5648 5646 5645 5643 5642 5641 5640 5639 5638 5637 5636 5634
5708 5707 5705 5704 5703 5702 5701 5700 5699 5698 5696 5695 5694 5693 5691 5690 5689 5687 5684 5682 5679 5677 5674 5671 5668 5666 5663 5660 5658 5656 5654 5652 5650 5649 5647 5646 5645 5644 5643 5642 5641 5640 5639 5637
5706 5705 5704 5703 5703 5702 5701 5700 5699 5698 5697 5696 5695 5694 5693 5692 5690 5689 5687 5684 5682 5680 5677 5675 5672 5669 5666 5664 5661 5659 5657 5655 5654 5652 5651 5649 5648 5647 5646 5645 5644 5643 5642 5640
5705 5704 5703 5702 5702 5701 5700 5700 5699 5698 5698 5697 5696 5695 5694 5693 5692 5691 5689 5687 5685 5682 5680 5678 5676 5673 5670 5668 5665 5663 5661 5659 5657 5656 5654 5653 5652 5651 5649 5648 5647 5646 5645 5644
5703 5702 5702 5701 5701 5700 5700 5699 5699 5698 5698 5697 5697 5696 5695 5694 5693 5692 5691 5689 5687 5685 5683 5681 5679 5677 5674 5672 5669 5667 5665 5663 5662 5660 5658 5657 5655 5654 5653 5652 5651 5649 5648 5647
5701 5700 5700 5700 5699 5699 5699 5698 5698 5698 5697 5697 5697 5697 5696 5695 5695 5694 5692 5691 5690 5688 5686 5684 5682 5680 5678 5675 5673 5671 5669 5668 5666 5664 5662 5661 5659 5658 5657 5655 5654 5653 5652 5651